TimeHST,TemperatureF,Dew PointF,Humidity,Sea Level PressureIn,VisibilityMPH,Wind Direction,Wind SpeedMPH,Gust SpeedMPH,PrecipitationIn,Events,Conditions,WindDirDegrees,DateUTC
12:53 AM,73.9,64.9,73,29.93,10.0,ENE,3.5,-,N/A,,Clear,70,2012-10-23 10:53:00
1:53 AM,73.9,64.0,71,29.92,10.0,ENE,5.8,-,N/A,,Partly Cloudy,60,2012-10-23 11:53:00
2:53 AM,75.9,63.0,64,29.91,10.0,NNE,5.8,-,N/A,,Overcast,30,2012-10-23 12:53:00
3:53 AM,77.0,63.0,62,29.90,10.0,NE,4.6,-,N/A,,Overcast,40,2012-10-23 13:53:00
4:53 AM,75.9,62.1,62,29.91,10.0,Calm,Calm,-,N/A,,Clear,0,2012-10-23 14:53:00
5:53 AM,73.9,63.0,68,29.92,10.0,Calm,Calm,-,N/A,,Scattered Clouds,0,2012-10-23 15:53:00
6:53 AM,73.9,63.0,68,29.94,10.0,NNE,3.5,-,N/A,,Overcast,30,2012-10-23 16:53:00
7:53 AM,80.1,63.0,56,29.95,10.0,SE,4.6,-,N/A,,Clear,140,2012-10-23 17:53:00
8:53 AM,82.9,64.0,53,29.96,10.0,South,8.1,-,N/A,,Mostly Cloudy,190,2012-10-23 18:53:00
9:53 AM,82.9,66.9,58,29.96,10.0,SSW,9.2,-,N/A,,Overcast,200,2012-10-23 19:53:00
10:53 AM,86.0,69.1,57,29.94,10.0,SSW,12.7,-,N/A,,Overcast,200,2012-10-23 20:53:00
11:53 AM,84.0,69.1,61,29.92,10.0,South,12.7,-,N/A,,Clear,190,2012-10-23 21:53:00
12:53 PM,86.0,69.1,57,29.90,10.0,SW,12.7,-,N/A,,Clear,220,2012-10-23 22:53:00
1:53 PM,84.9,69.1,59,29.87,10.0,WSW,12.7,-,N/A,,Clear,240,2012-10-23 23:53:00
2:53 PM,84.0,69.1,61,29.86,10.0,WSW,10.4,-,N/A,,Clear,240,2012-10-24 00:53:00
3:53 PM,84.0,69.1,61,29.86,10.0,West,8.1,-,N/A,,Clear,260,2012-10-24 01:53:00
4:53 PM,82.9,69.1,63,29.87,10.0,WNW,8.1,-,N/A,,Clear,290,2012-10-24 02:53:00
5:53 PM,81.0,69.1,67,29.89,10.0,WNW,8.1,-,N/A,,Clear,300,2012-10-24 03:53:00
6:53 PM,81.0,69.1,67,29.91,10.0,NW,9.2,-,N/A,,Mostly Cloudy,320,2012-10-24 04:53:00
7:36 PM,80.6,69.8,70,29.92,10.0,NW,9.2,-,N/A,,Overcast,310,2012-10-24 05:36:00
7:53 PM,81.0,70.0,69,29.93,10.0,WNW,8.1,-,N/A,,Overcast,300,2012-10-24 05:53:00
8:53 PM,81.0,70.0,69,29.94,10.0,WNW,10.4,-,N/A,,Overcast,290,2012-10-24 06:53:00
9:53 PM,80.1,70.0,71,29.94,10.0,WNW,10.4,-,N/A,,Mostly Cloudy,290,2012-10-24 07:53:00
10:14 PM,80.6,69.8,70,29.94,10.0,WNW,8.1,-,N/A,,Mostly Cloudy,290,2012-10-24 08:14:00
10:53 PM,80.1,71.1,74,29.93,10.0,West,6.9,-,N/A,,Overcast,280,2012-10-24 08:53:00
11:53 PM,80.1,70.0,71,29.92,10.0,West,4.6,-,N/A,,Overcast,260,2012-10-24 09:53:00